Miscellaneous Local Product
Issued by NWS North Platte, NE

Home | Current Version | Previous Version | Text Only | Print | Product List | Glossary On
Versions: 1 2 3 4 5 6 7 8 9 10 11 12 13 14 15 16 17 18 19 20 21 22 23 24 25 26 27 28 29 30 31 32 33 34 35 36 37 38 39 40 41 42 43 44 45 46 47 48 49 50
000
AXUS43 KLBF 201010
MISLBF


WESTERN AND NORTH CENTRAL NEBRASKA HOURLY WEATHER ROUNDUP
NATIONAL WEATHER SERVICE NORTH PLATTE NE
500 AM CDT MON OCT 20 2014

***STATIONS NOT REPORTING VARIABLES SUCH AS SKY/WEATHER OR
PRESSURE ARE PROVIDED BY THE NEBRASKA DEPARTMENT OF
ROADS...RAWS...AND APRS NETWORKS...AND ARE NOT UNDER
NATIONAL WEATHER SERVICE QUALITY CONTROL***

...OBSERVATIONS IN AND NEAR THE EASTERN PANHANDLE OF NEBRASKA...

CITY           SKY/WX    TMP DP  RH WIND       PRES   REMARKS
PINE RIDGE     CLEAR     33  31  92 CALM      30.09F
CHADRON        CLEAR     35  33  92 CALM      30.08F
ALLIANCE       CLEAR     33  29  85 CALM      30.11F
SIDNEY         CLEAR     37  33  85 W8        30.13F WCI  31
WHITECLAY        N/A     36  32  87 E7          N/A  WCI  30
RUSHVILLE        N/A     30  28  93 E5          N/A  WCI  25
CRESCENT LAKE    N/A     46  36  67 CALM        N/A
LISCO            N/A     38  33  85 CALM        N/A
BIG SPRINGS      N/A     38  34  87 CALM        N/A
LEWELLEN         N/A     37  34  90 CALM        N/A
$$

...OBSERVATIONS IN NORTH CENTRAL NEBRASKA...

CITY           SKY/WX    TMP DP  RH WIND       PRES   REMARKS
VALENTINE      CLEAR     33  31  92 W5        30.10R WCI  29
THEDFORD       CLEAR     40  36  85 W6        30.11R
AINSWORTH      CLEAR     39  35  85 W6        30.09R WCI  35
O`NEILL        CLEAR     45  39  79 NW6       30.07R
ORD            CLEAR     40  36  86 NW3       30.06R
BROKEN BOW     CLEAR     37  33  85 CALM      30.07S
BROWNLEE         N/A     52  38  60 CALM        N/A
SPRINGVIEW       N/A     37  34  89 CALM        N/A
BREWSTER         N/A     38  36  92 NW5         N/A  WCI  35
ROSE             N/A     51  40  67 N6          N/A
NEWPORT          N/A     37  36  94 W5          N/A  WCI  34
SARGENT          N/A     41  37  86 CALM        N/A
COMSTOCK         N/A     49  39  69 CALM        N/A
CHAMBERS         N/A     40  34  79 CALM        N/A
$$

...OBSERVATIONS IN SOUTHWEST NEBRASKA AND FAR NORTHEAST COLORADO...

CITY           SKY/WX    TMP DP  RH WIND       PRES   REMARKS
WRAY           FAIR      37  35  92 W6        30.12S WCI  33
HOLYOKE        FAIR      41  36  81 W7        30.12F
IMPERIAL       CLEAR     40  33  76 CALM      30.11F
OGALLALA       CLEAR     37  34  91 W5        30.11S WCI  33
NORTH PLATTE   CLEAR     36  34  92 CALM      30.10S
MCCOOK         CLEAR     40  37  89 SW7       30.09S
LEXINGTON      CLEAR     40  38  91 W6        30.08R
PAXTON           N/A     42  37  82 CALM        N/A
SUTHERLAND       N/A     37  32  85 W3          N/A
BRADY            N/A     38  34  85 CALM        N/A
GOTHENBURG       N/A     44  37  76 W5          N/A
CALLAWAY         N/A     39  36  89 N5          N/A
$$

...SOME WEATHER OBSERVATIONS FROM AROUND THE REGION...

CITY           SKY/WX    TMP DP  RH WIND       PRES   REMARKS
DENVER         PTCLDY    49  36  61 SW12      30.15F
LARAMIE        CLEAR     32  27  81 SW7       30.21F WCI  26
CHEYENNE       CLEAR     40  33  76 W6        30.18F
SCOTTSBLUFF    CLEAR     39  35  86 N7        30.11F WCI  34
RAPID CITY     CLEAR     44  36  73 CALM      30.07F
PIERRE         PTCLDY    42  34  73 CALM      30.06S
WINNER         FAIR      48  36  63 SW6       30.08R
SIOUX FALLS    CLEAR     40  36  86 CALM      30.03R
OMAHA          CLEAR     49  45  86 N7        30.00R
GRAND ISLAND   CLEAR     44  41  89 W6        30.06R
KANSAS CITY    CLEAR     51  49  92 SW7       29.98F
WICHITA        PTCLDY    58  54  86 CALM      30.01R
HAYS           CLEAR     46  39  76 NW6       30.03S
LIBERAL        CLEAR     48  41  76 NW7       30.07R
GOODLAND       CLEAR     42  39  89 W6        30.13S
$$



USA.gov is the U.S. government's official web portal to all federal, state and local government web resources and services.